Wind_Speed
2 2 2 3 4 4 3 3 2 2 2 1 1 1 1 1 1 1 2 2 3 3 3 3 3 3 4 4 5 5 5 6 6 6 6 6 6 6 6 6 6 6 6 6 7 7 7 7 7
1 1 1 2 3 3 2 1 1 1 1 2 2 2 1 1 1 2 2 3 3 3 4 3 3 4 5 5 5 6 6 7 7 7 7 6 6 6 6 7 6 6 7 7 7 7 7 8 8
1 1 1 2 2 1 1 1 1 1 1 1 2 2 2 2 2 3 3 3 4 4 4 4 5 5 5 6 6 7 7 7 8 8 7 6 6 6 6 7 7 7 7 7 8 8 8 8 9
2 2 3 3 2 2 2 1 1 1 1 2 2 3 3 4 3 4 4 5 5 5 5 5 6 7 6 6 6 7 7 8 8 8 8 7 7 7 7 7 8 7 7 7 8 8 8 8 9
3 4 4 4 4 2 2 2 2 1 2 2 2 3 3 4 4 5 5 5 6 6 6 6 7 7 7 7 7 7 8 8 8 8 8 8 8 8 8 8 8 8 8 8 8 8 9 9 9
4 4 4 4 4 4 3 2 3 3 3 3 3 4 4 5 5 5 6 6 6 6 6 7 7 7 7 7 8 8 8 9 9 9 8 8 8 8 8 9 9 9 9 8 9 9 9 9 9
4 4 4 4 4 3 3 3 3 4 4 4 4 5 5 6 5 5 6 6 7 7 7 7 7 7 7 8 8 8 9 9 9 9 8 8 8 8 9 9 9 9 9 10 10 10 10 10 10
5 5 5 4 4 4 4 4 3 4 4 4 5 5 5 6 6 6 6 7 7 7 7 7 7 7 7 8 8 9 9 9 9 9 9 10 10 10 10 10 10 10 11 11 11 11 11 11 11
5 5 5 4 4 4 4 4 4 4 4 4 5 6 6 6 6 5 5 6 6 7 7 7 7 7 8 8 9 9 9 10 10 10 10 10 11 10 10 11 10 10 11 11 11 11 11 12 12
6 6 5 5 4 4 4 4 4 4 5 5 5 6 6 6 6 6 5 5 6 6 7 7 7 8 9 8 8 9 9 9 10 10 10 10 10 11 11 11 11 11 11 11 11 12 12 11 12
7 6 6 5 5 5 5 5 5 5 5 5 4 5 6 6 6 6 6 6 6 6 7 7 7 8 9 9 8 9 9 9 9 10 10 10 10 11 11 11 11 11 11 11 11 12 12 12 12
8 7 7 7 6 5 5 5 6 6 5 5 5 5 5 5 6 6 6 6 7 7 7 8 8 9 9 9 9 9 9 9 9 9 9 10 11 11 12 12 12 12 11 11 12 12 12 13 12
8 7 7 7 7 7 6 6 6 6 5 5 6 5 5 6 6 7 7 7 8 8 8 9 8 9 10 10 9 10 10 10 10 10 10 11 11 11 12 12 12 12 12 12 12 12 12 12 12
9 8 7 7 7 7 7 6 6 6 6 7 7 6 6 6 6 7 7 8 9 9 9 9 9 9 10 10 10 10 11 10 10 10 10 11 11 11 12 12 12 13 13 13 12 12 13 13 13
9 8 8 8 8 7 7 7 6 6 6 6 7 7 7 7 7 7 8 9 9 10 10 10 10 10 10 10 10 10 10 10 11 11 11 11 11 12 12 13 13 13 14 13 13 12 12 12 12
10 9 8 8 8 8 7 7 7 7 7 6 7 7 7 7 8 8 8 9 10 10 11 11 11 11 11 11 11 11 10 11 11 11 12 12 12 12 13 13 13 14 14 13 13 13 13 13 13
10 9 9 9 8 8 8 8 7 7 7 7 7 8 8 8 8 9 9 10 10 11 11 11 11 11 11 11 11 12 12 12 12 13 13 13 12 13 13 14 14 14 13 13 13 13 13 13 13
10 9 9 9 8 8 8 7 7 7 7 7 8 8 8 9 9 10 10 10 11 11 12 12 12 12 11 12 12 13 13 13 14 14 13 13 13 13 13 14 14 14 14 14 14 14 13 14 14
11 10 9 9 9 9 8 8 8 8 8 7 8 8 8 9 10 11 11 11 12 12 12 13 13 12 12 12 12 13 13 14 14 14 14 15 15 14 14 14 14 14 14 14 14 14 14 14 14
11 10 10 10 10 10 10 9 8 8 8 8 8 8 8 9 10 11 11 12 12 12 13 13 13 13 13 13 13 13 14 14 14 15 15 15 16 15 15 15 14 15 14 14 14 14 14 14 15
11 11 10 10 10 11 11 10 9 8 8 8 8 8 8 9 10 11 12 12 13 13 13 13 13 13 13 13 14 14 15 15 15 15 15 15 16 16 15 14 14 14 14 14 14 14 15 15 15
12 11 11 11 11 11 11 10 9 9 9 8 8 8 9 10 11 12 13 13 13 13 13 13 13 14 14 14 14 15 15 15 15 15 15 16 16 15 15 15 14 15 15 15 14 15 15 15 15
12 12 11 12 12 12 11 11 9 10 10 9 8 9 10 11 12 13 13 13 14 14 13 13 14 14 14 14 15 15 15 15 15 15 16 15 15 16 16 16 15 15 15 15 15 15 15 15 16
12 12 12 12 12 12 12 12 10 10 10 10 10 11 11 13 13 14 14 14 14 14 14 14 14 15 15 15 15 15 15 15 16 16 16 16 16 17 17 17 16 16 16 16 16 16 16 16 16
13 12 13 13 13 13 13 14 12 10 11 11 11 12 13 14 14 14 14 14 14 15 15 15 15 15 16 16 16 16 16 16 16 17 17 17 17 17 18 17 17 17 17 17 17 16 17 17 18
13 13 14 14 14 14 14 14 12 11 11 12 12 13 13 14 14 14 14 15 15 15 15 15 16 16 16 17 17 17 17 18 18 17 17 18 18 18 18 18 18 18 18 18 18 18 17 18 18
13 14 14 15 15 15 16 15 14 14 13 13 13 14 14 14 14 15 15 15 15 16 16 16 17 17 17 17 17 18 18 19 18 18 18 18 18 19 19 19 19 20 20 19 19 19 18 18 18
13 13 14 15 16 17 16 15 14 14 14 15 15 16 15 15 14 15 15 15 16 17 17 18 18 18 18 18 18 18 18 19 19 19 19 19 19 19 19 19 19 20 20 21 20 19 19 19 19
14 14 15 16 17 17 17 15 15 15 15 16 16 16 16 16 15 16 16 16 17 18 18 19 19 19 19 19 19 19 20 20 20 20 20 20 20 20 20 20 20 20 20 20 20 20 20 19 19
15 15 16 16 17 18 18 15 15 16 16 16 17 17 17 16 16 16 17 17 18 18 19 20 20 20 20 20 21 21 21 22 22 21 21 21 20 20 20 20 20 20 20 20 20 20 20 20 19
Wind_Direction
137 144 150 178 190 191 195 194 170 159 173 193 194 209 265 262 294 293 290 293 300 302 308 317 319 321 321 322 320 318 319 324 320 317 311 308 306 303 297 298 294 286 288 282 279 272 263 258 259
166 148 171 210 199 197 202 209 196 197 222 226 234 262 266 278 294 300 296 294 291 296 303 305 309 316 318 317 316 316 316 318 318 315 312 309 300 298 297 300 293 292 290 282 277 275 269 261 260
232 215 236 243 238 215 223 231 242 241 262 258 246 255 260 276 281 287 295 298 292 295 302 300 301 307 310 311 310 313 319 315 312 312 307 306 302 297 299 300 299 297 292 285 279 275 275 269 264
253 254 251 255 255 240 257 253 255 275 281 266 265 264 267 277 281 287 288 288 292 295 297 295 298 301 302 306 309 309 313 314 312 308 306 301 298 294 294 295 296 294 292 290 286 280 278 275 270
261 251 255 269 268 261 277 275 276 314 299 282 276 273 273 277 280 282 283 293 296 295 293 293 295 299 301 302 306 307 307 310 308 304 303 300 294 292 292 292 291 290 290 291 292 287 281 279 276
266 260 262 271 279 286 287 289 295 300 300 296 288 280 277 277 282 281 284 296 297 293 293 294 295 293 297 298 300 306 309 309 304 304 301 300 301 297 293 293 292 290 292 293 294 291 285 282 282
258 267 266 265 276 287 295 298 295 294 293 294 295 287 280 280 284 286 293 295 294 293 292 293 293 294 298 300 300 302 305 307 308 306 302 300 299 298 294 293 293 292 291 291 293 289 287 285 283
256 265 270 275 281 293 305 312 310 301 298 302 299 294 289 290 289 287 293 298 298 294 292 295 293 293 297 303 302 302 303 305 306 304 301 297 296 295 293 291 290 290 289 291 292 290 286 285 282
257 260 266 276 287 299 305 310 310 301 301 299 296 293 295 295 293 292 294 299 300 297 297 296 297 296 300 304 306 303 305 306 305 305 305 301 297 294 291 291 288 288 290 290 290 289 287 285 282
257 259 267 282 289 295 304 309 309 300 299 294 292 291 290 290 291 295 298 296 296 298 300 296 295 299 300 303 305 305 306 305 303 303 304 303 299 296 294 291 290 289 290 289 289 289 288 285 285
256 259 265 275 282 290 300 304 306 298 301 303 300 292 286 285 288 292 296 296 293 290 290 290 291 295 297 298 300 300 302 302 300 299 298 296 297 297 298 299 297 293 290 289 290 288 286 283 282
254 255 259 269 282 283 290 293 297 296 299 298 296 297 294 295 294 296 297 298 296 293 290 291 289 291 294 294 293 293 296 298 300 300 303 301 299 299 299 299 297 296 294 292 290 288 287 284 282
252 254 257 264 271 275 280 283 289 290 289 295 294 295 299 299 300 300 301 301 300 298 298 298 297 292 292 293 295 297 295 296 297 301 304 305 305 302 300 296 294 294 294 294 293 290 287 285 283
249 247 254 263 269 273 274 274 276 281 285 290 295 297 299 300 301 304 306 303 302 302 301 301 302 297 297 297 293 296 295 294 298 302 302 304 305 304 305 302 299 296 293 292 292 291 289 287 286
250 253 256 262 266 267 268 269 272 279 284 287 292 297 298 300 303 306 305 305 304 302 302 302 302 297 296 299 299 298 298 298 296 301 301 303 304 302 302 299 298 297 295 292 289 289 290 289 287
255 256 260 262 261 259 261 270 275 280 283 285 287 291 296 300 303 306 304 304 304 302 303 302 300 298 297 298 300 300 301 299 299 300 302 304 304 303 302 301 299 297 295 292 291 289 289 289 288
256 257 259 258 255 253 257 266 272 276 281 285 286 289 294 299 301 305 306 304 304 303 305 304 301 299 297 295 296 296 297 299 302 303 304 304 303 304 304 302 300 297 296 295 291 289 289 289 287
257 258 255 256 258 254 259 265 267 273 279 283 285 290 296 298 298 301 303 303 303 305 305 304 301 299 298 298 297 297 297 298 300 303 302 303 303 302 303 302 300 298 296 295 292 290 290 290 289
255 258 259 258 258 257 259 265 269 274 281 285 287 289 293 296 298 299 300 301 302 303 303 303 301 298 298 298 299 299 299 299 299 299 299 302 301 300 302 302 300 300 298 296 294 291 290 289 288
256 261 263 258 256 258 259 265 271 274 280 283 285 289 292 294 296 298 299 302 302 302 303 302 299 297 297 298 298 298 298 300 301 300 298 300 300 299 299 301 301 300 299 297 293 291 290 289 287
258 262 261 259 259 259 261 262 268 272 274 277 282 288 292 297 299 300 300 302 302 301 300 301 301 297 297 298 300 300 300 301 301 300 299 298 298 299 299 301 300 299 297 295 293 291 289 288 286
257 260 258 258 260 260 260 262 268 270 272 275 281 290 295 299 301 301 301 302 302 300 300 299 298 295 295 298 301 301 300 300 300 300 299 298 297 296 298 299 299 298 296 295 294 292 292 291 288
255 257 258 258 260 262 263 266 266 268 273 278 283 289 294 300 303 303 302 301 301 301 302 300 299 296 295 296 298 300 301 301 301 301 301 299 298 298 298 297 297 296 294 293 294 294 293 293 289
250 254 259 258 258 259 263 266 265 269 277 280 282 288 295 301 303 302 301 301 299 299 301 301 301 299 297 296 296 297 297 299 300 300 300 299 298 298 298 296 294 293 292 290 291 292 291 290 291
250 253 256 257 256 258 260 264 269 273 276 281 285 291 297 300 300 300 299 299 299 298 299 300 299 299 297 297 296 295 295 297 298 298 299 300 299 298 296 295 292 290 290 288 286 288 288 286 287
253 255 256 261 260 259 261 266 272 274 277 281 287 292 296 297 297 297 297 297 299 299 299 299 300 299 298 295 294 294 293 294 296 298 299 299 298 298 296 295 292 290 289 288 285 285 287 286 284
252 257 261 261 264 264 263 267 270 276 279 283 287 292 295 295 295 295 296 297 297 297 298 299 300 300 299 296 294 293 294 294 295 296 297 297 298 298 296 293 290 288 288 287 285 284 284 282 281
254 257 260 262 266 268 268 268 271 275 280 285 288 291 290 291 292 293 295 296 296 296 298 298 299 299 298 297 295 294 294 295 295 295 296 296 296 297 296 293 292 290 288 287 285 285 282 281 280
257 257 260 263 265 266 269 271 272 274 278 282 285 288 290 291 292 293 293 293 294 294 296 297 298 297 296 294 293 292 293 294 294 294 293 293 294 294 296 293 292 292 291 289 287 285 283 282 279
256 258 261 264 266 269 272 272 272 275 279 282 285 288 289 290 291 291 291 293 294 295 295 296 297 296 295 293 292 291 292 292 292 292 291 290 292 293 294 295 294 293 292 290 289 288 284 281 279
Height
5889 5888 5889 5889 5890 5889 5889 5889 5888 5888 5888 5888 5888 5888 5888 5888 5889 5891 5888 5886 5886 5886 5885 5885 5885 5884 5883 5883 5882 5881 5880 5880 5879 5878 5877 5876 5875 5875 5874 5874 5873 5873 5872 5872 5871 5871 5871 5870 5870
5888 5889 5889 5889 5888 5888 5889 5888 5888 5888 5888 5887 5887 5887 5887 5887 5887 5887 5886 5886 5886 5885 5885 5884 5884 5883 5883 5882 5882 5881 5880 5879 5878 5877 5876 5875 5874 5874 5873 5873 5872 5871 5871 5870 5870 5870 5869 5869 5869
5888 5888 5889 5889 5888 5888 5888 5888 5887 5887 5887 5887 5887 5887 5887 5887 5887 5886 5886 5885 5885 5885 5884 5884 5883 5883 5882 5881 5881 5880 5879 5878 5877 5876 5875 5874 5873 5872 5872 5871 5871 5870 5869 5869 5868 5868 5868 5867 5867
5888 5889 5889 5888 5888 5888 5887 5887 5887 5886 5886 5886 5886 5886 5886 5886 5886 5885 5885 5885 5884 5884 5883 5883 5882 5881 5881 5880 5880 5879 5878 5877 5876 5875 5874 5873 5872 5871 5871 5870 5869 5869 5868 5868 5867 5867 5866 5866 5865
5887 5888 5888 5887 5887 5887 5886 5886 5886 5886 5885 5885 5885 5885 5885 5885 5885 5884 5884 5883 5883 5883 5882 5882 5881 5880 5880 5879 5879 5878 5877 5876 5875 5873 5872 5872 5871 5870 5869 5869 5868 5867 5866 5866 5866 5865 5864 5864 5863
5887 5887 5887 5886 5886 5886 5885 5885 5885 5885 5885 5885 5885 5884 5884 5884 5884 5883 5882 5882 5882 5881 5881 5880 5880 5879 5879 5878 5877 5876 5875 5874 5873 5872 5871 5870 5869 5868 5868 5867 5866 5866 5865 5864 5864 5863 5862 5862 5861
5887 5886 5885 5886 5885 5885 5885 5884 5884 5884 5884 5884 5883 5883 5882 5882 5882 5881 5881 5881 5880 5880 5879 5879 5878 5878 5877 5876 5876 5875 5874 5873 5872 5870 5869 5868 5868 5867 5866 5865 5864 5864 5863 5862 5862 5861 5860 5860 5859
5886 5886 5885 5885 5884 5884 5884 5883 5883 5883 5883 5883 5882 5882 5881 5881 5881 5880 5880 5879 5879 5878 5878 5877 5877 5876 5876 5875 5874 5873 5872 5871 5870 5869 5868 5867 5866 5865 5864 5863 5862 5861 5861 5860 5859 5858 5858 5857 5856
5885 5886 5884 5884 5884 5883 5883 5882 5882 5881 5881 5881 5881 5880 5880 5879 5879 5879 5878 5878 5877 5877 5876 5876 5875 5875 5874 5873 5872 5871 5870 5869 5868 5867 5866 5865 5864 5863 5862 5861 5860 5859 5858 5858 5857 5855 5855 5854 5853
5883 5884 5883 5883 5883 5882 5881 5881 5881 5880 5880 5880 5879 5879 5878 5878 5877 5877 5877 5877 5876 5875 5875 5874 5873 5873 5872 5871 5870 5869 5868 5867 5866 5865 5864 5863 5862 5861 5860 5859 5858 5857 5856 5855 5854 5853 5852 5851 5851
5882 5882 5882 5881 5881 5881 5880 5880 5879 5879 5878 5878 5878 5878 5877 5876 5876 5876 5875 5875 5875 5874 5873 5873 5872 5871 5870 5869 5868 5867 5866 5865 5864 5863 5862 5861 5860 5859 5858 5856 5855 5854 5853 5852 5851 5850 5849 5849 5848
5880 5880 5880 5880 5879 5879 5879 5878 5878 5877 5877 5877 5876 5876 5875 5875 5874 5874 5874 5873 5873 5872 5871 5871 5870 5869 5868 5867 5866 5865 5864 5863 5862 5860 5859 5858 5857 5856 5855 5854 5853 5851 5850 5849 5848 5847 5846 5845 5845
5878 5878 5878 5878 5878 5878 5877 5877 5876 5876 5876 5875 5875 5874 5874 5873 5873 5872 5871 5871 5870 5870 5869 5868 5868 5866 5865 5864 5863 5862 5862 5861 5859 5858 5857 5856 5855 5853 5852 5851 5849 5848 5847 5846 5845 5844 5843 5842 5842
5876 5876 5876 5876 5876 5876 5876 5875 5875 5874 5874 5873 5873 5872 5872 5872 5871 5871 5870 5869 5868 5867 5867 5866 5865 5864 5862 5861 5861 5860 5859 5858 5857 5855 5854 5853 5852 5851 5849 5848 5846 5845 5844 5843 5842 5841 5840 5839 5838
5874 5875 5875 5874 5874 5874 5874 5873 5873 5873 5872 5872 5871 5871 5870 5870 5870 5869 5868 5867 5866 5865 5864 5863 5862 5861 5860 5859 5858 5857 5856 5855 5854 5853 5852 5851 5849 5848 5846 5845 5843 5842 5840 5839 5838 5837 5837 5836 5835
5872 5872 5872 5872 5872 5872 5873 5872 5872 5871 5870 5870 5870 5869 5869 5868 5868 5867 5866 5865 5864 5862 5861 5861 5860 5858 5857 5856 5855 5854 5853 5852 5851 5850 5849 5848 5846 5845 5843 5841 5840 5838 5837 5836 5835 5834 5833 5833 5832
5869 5870 5870 5870 5870 5870 5870 5870 5870 5869 5868 5868 5868 5867 5867 5866 5866 5865 5864 5863 5862 5860 5859 5858 5857 5856 5855 5854 5853 5852 5851 5849 5848 5847 5846 5844 5843 5841 5840 5838 5836 5835 5833 5832 5831 5831 5830 5829 5829
5867 5867 5867 5867 5867 5867 5867 5867 5867 5867 5866 5866 5865 5865 5864 5864 5863 5863 5862 5860 5859 5858 5856 5855 5854 5853 5852 5851 5850 5849 5848 5847 5845 5844 5842 5841 5840 5838 5836 5835 5833 5831 5830 5829 5828 5827 5826 5826 5825
5864 5864 5865 5865 5865 5864 5864 5865 5865 5864 5864 5864 5863 5863 5862 5861 5861 5860 5859 5858 5857 5855 5854 5852 5851 5850 5849 5848 5847 5846 5845 5843 5842 5840 5839 5838 5836 5834 5833 5831 5829 5828 5826 5825 5824 5823 5823 5822 5821
5861 5861 5862 5862 5862 5862 5862 5862 5862 5862 5861 5861 5861 5860 5860 5859 5858 5857 5856 5855 5854 5852 5851 5849 5848 5847 5845 5845 5844 5842 5841 5840 5839 5837 5835 5834 5832 5830 5829 5827 5826 5824 5823 5822 5821 5820 5819 5818 5818
5858 5859 5859 5859 5859 5859 5859 5860 5859 5859 5859 5858 5858 5858 5857 5857 5856 5855 5853 5852 5851 5849 5848 5846 5845 5843 5842 5841 5840 5839 5837 5836 5835 5833 5831 5830 5828 5826 5825 5823 5822 5821 5819 5818 5817 5816 5816 5815 5814
5855 5856 5856 5856 5856 5856 5857 5856 5857 5856 5856 5856 5855 5855 5854 5854 5853 5851 5850 5849 5847 5846 5844 5843 5841 5840 5839 5837 5836 5835 5834 5832 5831 5829 5827 5825 5824 5822 5821 5819 5818 5816 5815 5814 5813 5812 5811 5810 5809
5852 5852 5853 5853 5852 5853 5853 5853 5854 5853 5853 5853 5852 5852 5851 5850 5849 5848 5847 5846 5844 5842 5841 5839 5838 5836 5835 5834 5832 5831 5829 5828 5826 5824 5823 5821 5819 5818 5816 5815 5813 5812 5811 5810 5809 5808 5807 5805 5804
5849 5849 5849 5849 5849 5850 5850 5849 5850 5850 5850 5850 5849 5849 5848 5847 5846 5844 5843 5842 5840 5839 5837 5836 5834 5833 5831 5830 5828 5827 5825 5823 5822 5820 5818 5817 5815 5813 5812 5810 5809 5807 5806 5805 5804 5803 5802 5801 5799
5846 5847 5847 5846 5845 5846 5846 5845 5847 5847 5846 5846 5845 5845 5844 5843 5842 5840 5839 5838 5836 5835 5833 5832 5830 5829 5827 5825 5824 5822 5821 5819 5817 5816 5814 5812 5811 5809 5807 5806 5804 5803 5801 5800 5799 5798 5797 5796 5794
5842 5843 5844 5843 5843 5842 5842 5842 5843 5843 5842 5842 5841 5841 5840 5839 5838 5836 5835 5834 5832 5831 5829 5828 5826 5824 5823 5821 5819 5818 5816 5815 5813 5811 5809 5808 5806 5804 5802 5801 5799 5798 5796 5795 5794 5793 5792 5790 5789
5838 5839 5839 5839 5838 5838 5838 5839 5839 5838 5838 5838 5837 5836 5836 5835 5834 5832 5831 5830 5828 5827 5825 5824 5822 5820 5818 5816 5815 5813 5811 5810 5808 5806 5804 5803 5801 5799 5797 5796 5794 5793 5791 5789 5788 5787 5786 5785 5783
5835 5835 5835 5834 5834 5834 5834 5835 5835 5834 5834 5834 5833 5832 5831 5830 5829 5828 5827 5825 5824 5822 5821 5819 5817 5815 5813 5812 5810 5808 5807 5805 5803 5801 5799 5797 5796 5794 5792 5790 5789 5787 5785 5784 5782 5781 5780 5779 5778
5831 5831 5831 5830 5830 5830 5830 5833 5831 5830 5830 5829 5828 5827 5826 5826 5825 5824 5822 5821 5819 5818 5816 5814 5812 5810 5808 5806 5805 5803 5802 5800 5798 5796 5794 5792 5790 5788 5786 5785 5783 5781 5779 5778 5776 5775 5774 5773 5772
5827 5827 5827 5827 5826 5826 5825 5829 5827 5826 5826 5825 5824 5823 5822 5821 5820 5819 5817 5816 5814 5813 5811 5809 5807 5805 5803 5801 5799 5797 5795 5794 5792 5790 5788 5786 5784 5782 5781 5779 5777 5775 5773 5772 5770 5769 5768 5766 5765